Location: McMath-Hulbert Observatory
(42.6964°N, 83.3187°W)
Time: 09:01:21
(UTC-05:00)

Daily predictions for brighter satellites

Satellite Brightness Start Highest point End
(mag) Time Altitude Azimuth Time Altitude Azimuth Time Altitude Azimuth
Cosmos 2297 Rocket 2.5 17:22:37 10° NNW 17:28:02 44° ENE 17:33:26 10° SE
NOSS 3-2 (C) 4.5 17:22:08 10° NNW 17:29:00 39° NE 17:36:26 10° ESE
Cosmos 1656 4.5 17:24:24 10° SSE 17:29:16 32° ESE 17:34:06 10° NE
Cosmos 2026 Rocket 4.2 17:24:47 10° N 17:31:11 82° W 17:37:29 10° S
Cosmos 1666 2.8 17:29:14 10° N 17:32:55 51° E 17:36:33 10° SSE
ATLAS 3B R/B 2.6 17:26:44 10° NNW 17:33:27 71° NE 17:39:58 10° SE
Cosmos 2266 Rocket 4.5 17:28:02 10° N 17:33:37 36° ENE 17:39:15 10° SE
Meteor 1-12 Rocket 4.3 17:28:12 10° N 17:33:56 89° E 17:39:44 10° S
ATLAS 2AS CENTAUR R/B 3.2 17:28:12 10° SW 17:36:00 83° NW 17:44:12 10° NE
USA 161 2.2 17:33:24 10° N 17:36:19 59° WNW 17:39:18 10° SSW
Cosmos 1484 Rocket 3.0 17:35:05 10° SSE 17:38:58 52° ENE 17:42:54 10° N
Cosmos 1655 Rocket 4.1 17:32:35 10° N 17:39:01 83° E 17:45:25 10° S
Cosmos 1455 Rocket 3.1 17:34:49 10° N 17:39:11 58° E 17:43:29 10° SSE
Okean 1 4.1 17:35:26 10° SSW 17:39:19 55° W 17:43:14 10° N
Atlas Centaur 2 4.3 17:35:01 10° WSW 17:39:21 20° SSW 17:43:05 10° SSE
Cosmos 158 Rocket 3.9 17:38:10 10° NNW 17:43:13 59° ENE 17:48:05 10° SSE
Cosmos 1544 Rocket 3.5 17:39:15 10° N 17:43:37 71° E 17:47:55 10° SSE
DELTA 2 R/B (1) 3.9 17:39:05 10° W 17:44:35 65° S 17:50:06 10° E
USA 116 4.3 17:44:23 10° NE 17:47:01 24° E 17:49:34 10° SSE
NOSS 8 (A) 4.5 17:44:14 10° SSW 17:47:28 54° ESE 17:50:34 11° NE
USA 215 3.3 17:42:25 10° ESE 17:48:57 79° NE 17:55:31 10° NW
PSLV R/B 3.5 17:46:47 10° WSW 17:49:57 59° S 17:52:53 11° E
YAOGAN 1 3.2 17:47:04 10° SE 17:50:58 34° ENE 17:54:53 10° N
IRS-1A Rocket 4.5 17:46:28 10° SE 17:51:45 46° ENE 17:56:59 10° N
Abrixas rocket 3.4 17:49:02 10° WNW 17:51:58 30° N 17:54:22 13° NE
BREEZE-M DEB (TANK) 3.7 17:50:55 10° NW 17:53:26 39° NNE 17:58:34 10° E
CSL-04 Debris 4.1 17:48:34 10° SSE 17:53:56 78° ENE 17:59:21 10° NNW
Meteor 2-4 Rocket 3.7 17:51:30 10° S 17:56:49 59° E 18:02:04 10° NNE
Cosmos 468 4.5 17:51:46 10° NNW 17:57:07 81° ENE 18:02:24 10° SSE
NOSS 3-4 (A) 4.1 17:52:05 10° S 17:57:43 38° ESE 18:02:56 13° NE
NOSS 3-4 (C) 4.1 17:52:12 10° S 17:57:49 37° ESE 18:03:00 13° NE
Cosmos 1975 4.4 17:55:07 10° NNW 17:58:53 39° W 18:02:41 10° SSW
ISS -1.6 17:59:11 10° WNW 18:02:04 28° SW 18:04:56 10° SSE
Cosmos 724 4.2 17:56:42 10° NNW 18:02:31 77° ENE 18:08:20 10° SE
METEOR-M 4.4 17:58:24 10° SE 18:03:29 47° ENE 18:08:35 10° N
FENGYUN 3A 4.3 18:00:03 10° SE 18:04:41 30° ENE 18:09:19 10° N
Cosmos 2369 3.7 18:00:04 10° SSW 18:05:42 75° ESE 18:11:26 10° NNE
AQUARIUS 4.2 18:01:17 10° SSE 18:05:47 88° W 18:10:18 10° NNW
Cosmos 2278 3.7 18:00:15 10° SSW 18:05:54 72° ESE 18:11:36 10° NNE
COSMO-SKYMED 1 3.3 18:02:59 10° NNE 18:06:55 32° E 18:10:49 10° SSE
RESURS DK-1 4.3 18:05:50 10° SE 18:07:44 13° ESE 18:07:48 13° E
SJ 16-02 1.3 18:04:20 10° S 18:08:42 75° ESE 18:13:07 10° NNE
CSL-04 Rocket 4.0 18:03:53 10° S 18:09:17 71° WSW 18:14:49 10° NNW
Meteor 1-28 Rocket 3.1 18:06:03 10° NNE 18:09:50 81° ESE 18:13:36 10° S
Meteor 1-13 Rocket 4.4 18:06:34 10° SSW 18:12:10 80° W 18:17:56 10° N
CENTAUR R/B 3.6 18:05:23 10° NNW 18:12:22 35° NE 18:19:24 12° E
Cosmos 1697 Rocket 2.8 18:15:40 10° S 18:21:11 58° ESE 18:25:53 14° NE
Cosmos 1515 3.9 18:19:14 10° SSE 18:22:51 44° E 18:25:17 19° NNE
CZ-2C R/B 3.7 18:19:06 10° NNE 18:23:50 83° ESE 18:28:35 10° SSW
EO 1 Del DPAF 3.8 18:22:11 23° NE 18:23:59 36° E 18:27:30 10° SSE
CZ-4 R/B 1.7 18:22:54 10° S 18:26:46 67° W 18:30:43 10° NNW
Meteor 1-15 Rocket 4.3 18:23:02 10° N 18:28:58 69° ENE 18:34:49 10° SSE
SPOT 3 Rocket 3.7 18:24:40 10° SE 18:29:38 49° ENE 18:34:36 10° N
Cosmos 1025 Rocket 3.2 18:27:13 10° SSE 18:31:22 49° E 18:34:10 19° NNE
Ariane Rocket 4.0 18:27:06 10° S 18:31:59 49° W 18:36:54 10° NNW
Cosmos 2082 4.3 18:29:14 10° NNW 18:34:45 60° WSW 18:40:16 10° S
MONITOR-E 4.0 18:33:49 10° SSE 18:36:49 63° ENE 18:39:51 10° N
SKYMED 3 4.5 18:33:12 13° NNE 18:37:05 70° ESE 18:41:24 10° S
ERS-2 2.0 18:34:00 10° SSE 18:37:36 60° ENE 18:41:15 10° N
Okean 1-7 Rocket 3.9 18:33:27 10° SSE 18:37:36 43° E 18:39:24 28° NE
Cosmos 494 Rocket 4.1 18:32:43 10° N 18:37:51 50° ENE 18:42:56 10° SE
Landsat 4 3.6 18:35:27 15° NNE 18:38:33 87° ESE 18:42:21 10° SSW
Gblst 52 Del rocket 4.2 18:34:16 10° NW 18:39:53 75° NNE 18:44:12 20° ESE
Cosmos 2251 Rocket 4.0 18:35:31 10° N 18:40:23 36° ENE 18:42:21 27° ESE
Cosmos 2084 3.3 18:36:23 10° SSW 18:40:32 61° ESE 18:41:44 40° ENE
Cosmos 2227 Rocket 3.7 18:40:23 10° NW 18:45:34 38° WSW 18:50:44 10° S
Cosmos 1269 Rocket 4.5 18:40:39 10° NNW 18:45:54 63° WSW 18:51:07 10° S
Cosmos 1125 Rocket 4.3 18:41:15 10° SW 18:46:23 51° WNW 18:51:33 10° N
Okean 2 3.2 18:44:26 10° S 18:48:30 79° E 18:50:50 25° NNE
Gbstr 26 Del rocket 4.4 18:42:31 10° WSW 18:50:36 82° NNW 18:54:39 30° NE
Cosmos 1241 Rocket 4.5 18:45:07 10° SSW 18:51:30 86° WNW 18:55:41 23° NNE
DNEPR-1 R/B 4.1 18:49:35 10° NNW 18:54:40 66° NE 18:59:46 15° SE
ALOS 2.1 18:50:07 10° SSE 18:54:47 86° ENE 18:59:29 10° NNW
FengYun 1-2 T 4.5 18:49:43 10° SE 18:55:01 45° ENE 19:00:22 10° N
SKYMED 2 3.7 18:51:25 14° N 18:55:05 75° WNW 18:59:24 10° SSW
Cosmos 1980 Rocket 2.1 18:56:59 10° SSW 19:02:38 74° ESE 19:05:03 36° NE
Cosmos 1066 Rocket 4.1 19:00:50 10° S 19:06:14 59° E 19:07:38 44° NE
Cosmos 2297 Rocket 4.3 19:07:07 10° NW 19:11:49 27° WSW 19:16:30 10° SSW
NOSS 3-2 (C) 4.5 19:12:55 10° NW 19:20:24 62° WSW 19:28:29 10° SSE
SL-24 R/B - RUBIN 2 4.4 19:20:46 10° SW 19:26:56 68° NW 19:28:35 46° N
DELTA 2 R/B (1) 4.3 19:25:26 10° W 19:30:43 46° SSW 19:31:48 41° SSE
Cosmos 2344 4.0 19:24:58 10° S 19:31:21 41° SE 19:31:21 41° SE
Lacrosse 5 rocket 3.8 19:28:45 10° S 19:29:24 14° S 19:29:24 14° S
Cosmos 2227 4.1 19:27:05 10° NNW 19:32:52 90° W 19:34:03 58° SSE
S3M 3.8 19:36:42 10° S 19:42:49 86° W 19:44:08 58° N
RESURS DK-1 3.9 19:41:13 10° SW 19:43:45 34° WSW 19:43:45 34° WSW
SL-16 R/B 3.5 19:39:50 10° S 19:42:33 28° S 19:42:33 28° S
Cosmos 2263 Rocket 3.9 19:41:50 10° NNW 19:43:35 20° N 19:43:35 20° N
SJ 16-02 4.2 19:46:02 10° W 19:47:52 12° NW 19:49:42 10° NNW
NOSS 3-4 (A) 4.3 19:42:34 10° WSW 19:48:30 44° NW 19:50:24 35° N
NOSS 3-4 (C) 4.3 19:42:38 10° WSW 19:48:35 45° NW 19:50:29 36° N
Cosmos 2322 Rocket 3.6 19:44:12 10° S 19:46:37 26° S 19:46:37 26° S
CENTAUR R/B 3.2 19:55:51 10° NW 20:03:48 74° WSW 20:06:43 45° SSE
Cosmos 1980 Rocket 4.4 20:43:11 10° W 20:46:52 20° NW 20:46:52 20° NW
